SL-16 DEB, 22432

Orbit data source: Space-Track

SL-16 DEB, 22432 is space debris in LEO originally from a launch on Fri, 25 Dec 1992 UTC launched from the Tyuratam Missile And Space Complex (TTMTR). Debris objects in space refer to the collection of defunct objects orbiting the Earth. Examples of debris include non-operational satellites, rocket bodies, and fragments generated from explosions, collisions, or faulty payload assembly.

Loading next visibility...
Identifier
22432, 1992-093DZ
Orbit
LEO
Country
Flag of CISCIS
Related business
Manufacturer
Unknown
Mission
Spacecraft
Bus & Motor
Unknown
Mass
Unknown
Launch date (UTC)
1992-12-25 (33 years ago)
Launch vehicle
Unknown
Launch site
Tyuratam Missile And Space Complex (TTMTR)
Object type
Payload
Rocket body
Debris
Shape & HBR
Unknown shape, 0.1 m
Radar Cross Section
Small (<0.1 m²)

Expand to show TLE details & history
Last TLE update: 10 hours ago

TLE from 10 hours ago
0 SL-16 DEB
1 22432U 92093DZ  26037.33703160  .00001435  00000-0  84689-3 0  9998
2 22432  70.8332 158.7816 0100211 179.8002 212.1925 14.07095521687474
Epoch: 2026-02-06T08:05Z
TLE epoch observation values (Epoch: 2026-02-06T08:05:19.530Z)
Latitude
29.52658°
Longitude
-87.73223°
Altitude
934.147 km
Speed
7.356 km/s
True Right ascension
11h 20m 18s
True Declination
29° 22' 58"
Sunlit
Object was in full shadow at epoch
Visualization orbit readout
Latitude
Unknown
Longitude
Unknown
Altitude
Unknown
Speed
Unknown
Apparent Right ascension
Unknown
Apparent Declination
Unknown
Sunlit
N/A
Visualization observer readout
Local Sidereal Time
20:40:16
Azimuth
Unknown
Elevation
Unknown
Doppler factor
Unknown
Orbital elements
Apogee altitude
939.884 km
Perigee altitude
794.67 km
Semi-major axis
7,245.414 km
Eccentricity
0.01002
Inclination
70.8332°
RAAN
158.7816°
Arg. of periapsis
179.8002°
True anomaly
211.58714°
Mean anomaly
212.1925°
Eccentric anomaly
211.88918°
Mean motion
3.51924 °/min
Orbital period
102.29 mins
BSTAR
0.00084689
Loading maneuver chart data...
Computing Atmospheric mass density...

Documentation

Showing up to 5 results
|